This is the latest recevied weather packets stored in our database for station/object DH1NAI-6. If no packets are shown the sender has not sent any weather packets the latest 1 day(s).
| Time | Temp. | Humidity | Pressure | Rain* | Wind** | Luminosity | Snow |
|---|---|---|---|---|---|---|---|
| 1778045361 | 10° C | 99% | 1003.9 hPa | 0 mm | - | 11 W/m² | - |
| 1778044753 | 10° C | 99% | 1003.9 hPa | 0 mm | - | 21 W/m² | - |
| 1778043537 | 10° C | 99% | 1003.9 hPa | 0 mm | - | 7 W/m² | - |
| 1778042929 | 10° C | 99% | 1004 hPa | 0 mm | - | 4 W/m² | - |
| 1778042321 | 10° C | 99% | 1003.8 hPa | 0 mm | - | 5 W/m² | - |
| 1778041713 | 10° C | 99% | 1003.6 hPa | 0 mm | - | 2 W/m² | - |
| 1778041105 | 10° C | 99% | 1003.8 hPa | 0 mm | - | 2 W/m² | - |
| 1778040498 | 10° C | 99% | 1003.6 hPa | 0 mm | - | 0 W/m² | - |
| 1778039889 | 10° C | 99% | 1003.5 hPa | 1.02 mm | - | 0 W/m² | - |
| 1778039281 | 10° C | 99% | 1003.5 hPa | 1.02 mm | - | 0 W/m² | - |
| 1778038673 | 10° C | 99% | 1003.6 hPa | 1.02 mm | - | 0 W/m² | - |
| 1778038065 | 10° C | 99% | 1003.5 hPa | 1.02 mm | - | 0 W/m² | - |
| 1778037457 | 10.56° C | 99% | 1003.5 hPa | 0 mm | - | 0 W/m² | - |
| 1778036849 | 10.56° C | 99% | 1003.5 hPa | 0 mm | - | 0 W/m² | - |
| 1778036241 | 10.56° C | 99% | 1003.6 hPa | 1.02 mm | - | 0 W/m² | - |
| 1778035633 | 10.56° C | 99% | 1003.7 hPa | 1.02 mm | - | 0 W/m² | - |
| 1778034417 | 10.56° C | 99% | 1003.7 hPa | 1.02 mm | - | 0 W/m² | - |
| 1778033809 | 10.56° C | 99% | 1003.6 hPa | 1.02 mm | - | 0 W/m² | - |
| 1778033185 | 10.56° C | 99% | 1003.9 hPa | 1.02 mm | - | 0 W/m² | - |
| 1778030753 | 10.56° C | 99% | 1004 hPa | 0 mm | - | 0 W/m² | - |
| 1778029537 | 10.56° C | 99% | 1004 hPa | 0 mm | - | 0 W/m² | - |
| 1778028321 | 10.56° C | 99% | 1004.2 hPa | 0 mm | - | 0 W/m² | - |
| 1778027697 | 10.56° C | 99% | 1004.1 hPa | 0 mm | - | 0 W/m² | - |
| 1778027089 | 10.56° C | 99% | 1004.1 hPa | 0 mm | - | 0 W/m² | - |
| 1778026465 | 10.56° C | 99% | 1004.2 hPa | 0 mm | - | 0 W/m² | - |
* Rain latest hour (hover to see other rain measurements)
** Current wind speed in m/s (hover to see current wind gust speed)